Location: Newark
(20.0000°S, 47.0000°E)
Time: 11:07:17
(UTC+00:00)

Envisat - Pass Details

Date: 26 June 2019
Orbit: 764 x 766 km, 98.1° (Epoch: 17 August)

Event Time Altitude Azimuth Distance (km) Brightness Sun altitude
Exits shadow 15:40:08 20° 154° (SSE) 1,746 4.4 -17.7°
Maximum altitude 15:43:40 59° 79° (E) 881 3.0 -18.5°
Drops below altitude 10° 15:48:38 10° 360° (N) 2,291 5.7 -19.6°
Sets 15:50:57 0° 356° (N) 3,211 6.5 -20.2°
